Regional Weather Roundup
Issued by NWS Kansas City/Pleasant Hill, MO

Home | Current Version | Previous Version | Text Only | Print | Product List | Glossary On
Versions: 1 2 3 4 5 6 7 8 9 10 11 12 13 14 15 16 17 18 19 20 21 22 23 24 25 26 27 28 29 30 31 32 33 34 35 36 37 38 39 40 41 42 43 44 45 46 47 48 49 50
417
ASUS43 KEAX 071810
RWREAX

WEATHER ROUNDUP FOR EASTERN KANSAS AND NORTHWEST MISSOURI
NATIONAL WEATHER SERVICE KANSAS CITY/PLEASANT HILL MO
1200 PM CST WED DEC 07 2016

KSZ040-057-103>105-MOZ028-029-037-043-071900-
...KANSAS CITY METROPOLITAN AREA...

CITY           SKY/WX    TMP DP  RH WIND       PRES   REMARKS
K.C. INTL      LGT SNOW  25  20  81 NW8       30.31F VSB 1   WCI  16
6HR MIN TEMP:  24; 6HR MAX TEMP:  28; 6HR PCP:  0.02;

K.C. DOWNTOWN  LGT SNOW  27  23  85 NW8       30.32F VSB 1   WCI  19
6HR MIN TEMP:  27; 6HR MAX TEMP:  31; 6HR PCP: TRACE;

LEES SUMMIT    LGT SNOW  26  22  84 NW7       30.30F VSB 3/4 WCI  18
6HR MIN TEMP:  26; 6HR MAX TEMP:  30; 6HR PCP: TRACE;

OLATHE - IXD   LGT SNOW  26  22  84 NW12      30.31F VSB 1   WCI  16
6HR MIN TEMP:  26; 6HR MAX TEMP:  30; 6HR PCP: TRACE;

OLATHE - OJC   LGT SNOW  25  21  85 N7        30.31S FOG     WCI  17
6HR MIN TEMP:  25; 6HR MAX TEMP:  30; 6HR PCP: TRACE;

LAWRENCE       SNOW      26  24  92 NW13      30.34S VSB 1/2 WCI  15

$$

MOZ001>008-011>017-020>025-030>033-038>040-044>046-053-054-071900-
...NORTHERN AND CENTRAL MISSOURI...

CITY           SKY/WX    TMP DP  RH WIND       PRES   REMARKS
ST. JOSEPH     CLOUDY    25  13  60 NW14      30.34S WCI  13
6HR MIN TEMP:  24; 6HR MAX TEMP:  27;

MOSBY          LGT SNOW  28  23  80 W6        30.32F WCI  22
WARRENSBURG    CLOUDY    30  18  59 NW7       30.30S WCI  23
WHITEMAN AFB   FLURRIES  32  15  49 NW9       30.28S WCI  24
6HR MIN TEMP:  29; 6HR MAX TEMP:  33;

CLINTON        CLOUDY    36  16  44 NW7       30.29R WCI  30
SEDALIA        CLOUDY    34  16  47 NW8       30.28F WCI  27
6HR MIN TEMP:  31; 6HR MAX TEMP:  34;

WARSAW         NOT AVBL
CHILLICOTHE      N/A     30  14  51 NW12G17   30.31R WCI  20
6HR MIN TEMP:  25; 6HR MAX TEMP:  30; 6HR PCP:  0.02;

KIRKSVILLE     MOSUNNY   31  13  47 W8        30.24F WCI  23
6HR MIN TEMP:  24; 6HR MAX TEMP:  31;


$$

MOZ041-047>049-056>058-063>065-088>090-097-071900-
...EASTERN AND SOUTHERN MISSOURI...

CITY           SKY/WX    TMP DP  RH WIND       PRES   REMARKS
ST. LOUIS INTL CLOUDY    37  15  40 W5        30.23F WCI  33
6HR MIN TEMP:  31; 6HR MAX TEMP:  37;

SPIRIT OF STL  CLOUDY    36  18  48 SW3       30.22F
COLUMBIA       CLOUDY    35  14  42 W7        30.25S WCI  29
JEFFERSON CITY CLOUDY    36  17  46 NW7       30.27S WCI  30
ROLLA          CLOUDY    35  18  49 N9        30.21S WCI  28
OSAGE BEACH    CLOUDY    36  12  37 VRB3      30.25F
SPRINGFIELD    CLOUDY    37  15  40 NE7       30.21F WCI  32
BRANSON        CLOUDY    34  18  51 NE5       30.23S WCI  30
JOPLIN         CLOUDY    36  18  48 NE7       30.24F WCI  30
WEST PLAINS    CLOUDY    37  14  38 NE5       30.21S WCI  33

$$

IAZ060-094-KSZ022-034>040-054-083-096-NEZ052-066-093-071900-
...KANSAS...SOUTHEAST NEBRASKA AND IOWA...

CITY           SKY/WX    TMP DP  RH WIND       PRES   REMARKS
TOPEKA         LGT SNOW  26  22  84 N8        30.35S VSB 1   WCI  18
6HR MIN TEMP:  25; 6HR MAX TEMP:  29; 6HR PCP:  0.03;

MANHATTAN      LGT SNOW  25  18  74 N9        30.37S WCI  15
EMPORIA        LGT SNOW  27  23  85 N9        30.32S FOG     WCI  18
CHANUTE        CLOUDY    36  17  46 N12G20    30.27F WCI  28
WICHITA        CLOUDY    34  15  46 NE18      30.27S WCI  23
OMAHA          CLOUDY    21   8  57 NW13      30.32F WCI   9
LINCOLN        CLOUDY    22   6  50 NW16      30.36F WCI   8
FALLS CITY     CLOUDY    25  10  53 NW12      30.33F WCI  14
LAMONI         MOSUNNY   24  12  60 W15       30.26R WCI  11
DES MOINES     CLOUDY    23  11  60 NW18      30.23F WCI   9

$$





USA.gov is the U.S. government's official web portal to all federal, state and local government web resources and services.